TimeCDT,TemperatureF,Dew PointF,Humidity,Sea Level PressureIn,VisibilityMPH,Wind Direction,Wind SpeedMPH,Gust SpeedMPH,PrecipitationIn,Events,Conditions,WindDirDegrees,DateUTC
12:52 AM,33.1,21.0,61,30.11,10.0,NNE,6.9,-,N/A,,Overcast,30,2013-03-23 05:52:00
1:52 AM,32.0,21.0,64,30.10,10.0,NE,3.5,-,N/A,,Overcast,50,2013-03-23 06:52:00
2:52 AM,30.9,21.0,67,30.09,10.0,NE,3.5,-,N/A,,Overcast,50,2013-03-23 07:52:00
3:52 AM,30.0,21.0,69,30.09,10.0,ENE,3.5,-,N/A,,Mostly Cloudy,70,2013-03-23 08:52:00
4:52 AM,27.0,19.9,75,30.11,10.0,Calm,Calm,-,N/A,,Partly Cloudy,0,2013-03-23 09:52:00
5:52 AM,30.0,21.9,72,30.12,10.0,North,6.9,-,N/A,,Overcast,10,2013-03-23 10:52:00
6:52 AM,28.0,21.0,75,30.11,10.0,NE,4.6,-,N/A,,Clear,40,2013-03-23 11:52:00
7:52 AM,28.9,23.0,78,30.13,10.0,NNE,3.5,-,N/A,,Clear,20,2013-03-23 12:52:00
8:52 AM,33.1,21.9,64,30.14,10.0,North,3.5,-,N/A,,Clear,10,2013-03-23 13:52:00
9:52 AM,37.0,19.0,48,30.14,10.0,NNE,6.9,-,N/A,,Clear,30,2013-03-23 14:52:00
10:52 AM,39.0,19.0,45,30.13,10.0,NNE,5.8,-,N/A,,Clear,30,2013-03-23 15:52:00
11:52 AM,39.0,18.0,43,30.14,10.0,NE,8.1,-,N/A,,Clear,50,2013-03-23 16:52:00
12:52 PM,39.9,18.0,41,30.13,10.0,East,8.1,-,N/A,,Clear,90,2013-03-23 17:52:00
1:52 PM,41.0,19.0,41,30.12,10.0,ENE,4.6,-,N/A,,Clear,70,2013-03-23 18:52:00
2:52 PM,39.9,18.0,41,30.09,10.0,ESE,3.5,-,N/A,,Clear,120,2013-03-23 19:52:00
3:52 PM,41.0,19.0,41,30.04,10.0,ENE,8.1,-,N/A,,Scattered Clouds,70,2013-03-23 20:52:00
4:52 PM,41.0,21.0,45,30.04,10.0,NE,9.2,-,N/A,,Partly Cloudy,40,2013-03-23 21:52:00
5:52 PM,39.9,21.0,47,30.04,10.0,NE,9.2,-,N/A,,Mostly Cloudy,50,2013-03-23 22:52:00
6:52 PM,39.0,21.0,49,30.04,10.0,NE,8.1,-,N/A,,Mostly Cloudy,50,2013-03-23 23:52:00
7:52 PM,37.0,21.9,54,30.05,10.0,NE,4.6,-,N/A,,Scattered Clouds,50,2013-03-24 00:52:00
8:52 PM,37.0,23.0,57,30.06,10.0,NNE,6.9,-,N/A,,Mostly Cloudy,30,2013-03-24 01:52:00
9:52 PM,35.1,25.0,67,30.07,10.0,NNE,9.2,-,N/A,,Overcast,30,2013-03-24 02:52:00
10:52 PM,33.1,25.0,72,30.07,10.0,NE,11.5,-,N/A,,Overcast,40,2013-03-24 03:52:00
11:52 PM,30.9,27.0,85,30.07,4.0,NE,10.4,-,0.00,Snow,Light Snow,40,2013-03-24 04:52:00